Flushing, NY

12:42 AM EST on February 27, 2017 (GMT -0500)
La Guardia

Weather History for KLGA - December, 2011

Change the Weather History Date:

Thursday, December 1, 2011

  Actual Average Record
Temperature  
Mean Temperature 44 °F 43 °F  
Max Temperature 50 °F 49 °F 71 °F (2006)
Min Temperature 38 °F 37 °F 19 °F (1976)
Degree Days  
Heating Degree Days 21 22  
Month to date heating degree days 21 22  
Since 1 July heating degree days 643 797  
Cooling Degree Days 0 0  
Month to date cooling degree days 0 0  
Year to date cooling degree days 1375 1214  
Moisture  
Dew Point 24 °F    
Average Humidity 48    
Maximum Humidity 62    
Minimum Humidity 33    
Precipitation  
Precipitation 0.00 in 0.12 in 1.29 in (2010)
Month to date precipitation 0.00 0.12  
Year to date precipitation 61.42 41.29  
Snow  
Snow 0.00 in 0.10 in - ()
Month to date snowfall 0.0 0.1  
Since 1 July snowfall 1.7 0.4  
Snow Depth 0.00 in    
Sea Level Pressure  
Sea Level Pressure 30.17 in    
Wind  
Wind Speed 12 mph (NNW)    
Max Wind Speed 24 mph    
Max Gust Speed 31 mph    
Visibility 10 miles    
Events      
T = Trace of Precipitation, MM = Missing Value Source: NWS Daily Summary

Daily Weather History Graph

Daily Weather History Graph

Search for Another Location

Airport or City:

Trip Planner

Search our weather history database for the weather conditions in past years. The results will help you decide how hot, cold, wet, or windy it might be!

Date:

Astronomy

Dec. 01, 2011 Rise Set
Actual Time 7:00 AM EST 4:28 PM EST
Civil Twilight 6:29 AM EST 4:59 PM EST
Nautical Twilight 5:55 AM EST 5:33 PM EST
Astronomical Twilight 5:22 AM EST 6:06 PM EST
Moon 11:42 AM EST (12/1) 11:26 PM EST (12/1)
Length of Visible Light 10h 29m
Length of Day
9h 28m
Waxing Crescent, 43% of the Moon is Illuminated
Dec 1
Waxing Crescent
Dec 2
First Quarter
Dec 10
Full
Dec 17
Last Quarter
Dec 24
New

Hourly Weather History & Observations

Time (EST) Temp. Windchill Dew Point Humidity Pressure Visibility Wind Dir Wind Speed Gust Speed Precip Events Conditions
12:51 AM 42.1 °F 34.2 °F 30.0 °F 62% 29.98 in 10.0 mi NW 16.1 mph 26.5 mph N/A   Partly Cloudy
1:51 AM 42.1 °F 34.2 °F 28.9 °F 60% 30.01 in 10.0 mi NW 16.1 mph 25.3 mph N/A   Partly Cloudy
2:51 AM 39.9 °F 31.1 °F 26.1 °F 58% 30.03 in 10.0 mi NW 17.3 mph 27.6 mph N/A   Clear
3:51 AM 39.0 °F 29.3 °F 25.0 °F 57% 30.04 in 10.0 mi NW 19.6 mph 25.3 mph N/A   Clear
4:51 AM 39.0 °F 28.8 °F 25.0 °F 57% 30.06 in 10.0 mi NW 21.9 mph 28.8 mph N/A   Clear
5:51 AM 37.9 °F 27.6 °F 21.9 °F 53% 30.09 in 10.0 mi NNW 20.7 mph 27.6 mph N/A   Clear
6:51 AM 39.2 °F 30.5 °F 19.4 °F 45% 30.12 in 10.0 mi NNW 16.1 mph - N/A   Clear
7:51 AM 39.0 °F 31.0 °F 18.0 °F 43% 30.16 in 10.0 mi NW 13.8 mph - N/A   Clear
8:51 AM 39.9 °F 32.5 °F 19.0 °F 43% 30.19 in 10.0 mi NW 12.7 mph - N/A   Clear
9:51 AM 42.1 °F 34.9 °F 21.0 °F 43% 30.20 in 10.0 mi NW 13.8 mph - N/A   Clear
10:51 AM 45.0 °F 38.9 °F 21.0 °F 39% 30.19 in 10.0 mi NNW 12.7 mph - N/A   Clear
11:51 AM 46.0 °F 40.2 °F 21.0 °F 37% 30.17 in 10.0 mi NNW 12.7 mph - N/A   Clear
12:51 PM 48.0 °F - 23.0 °F 37% 30.16 in 10.0 mi NW 10.4 mph - N/A   Clear
1:51 PM 48.9 °F - 21.9 °F 35% 30.17 in 10.0 mi NNW 12.7 mph 19.6 mph N/A   Clear
2:51 PM 50.0 °F - 23.0 °F 35% 30.18 in 10.0 mi NNW 10.4 mph - N/A   Clear
3:51 PM 50.0 °F - 23.0 °F 35% 30.20 in 10.0 mi NW 10.4 mph - N/A   Clear
4:51 PM 48.9 °F - 25.0 °F 39% 30.22 in 10.0 mi NW 10.4 mph - N/A   Clear
5:51 PM 48.9 °F - 26.1 °F 41% 30.23 in 10.0 mi NW 11.5 mph - N/A   Clear
6:51 PM 48.0 °F - 28.0 °F 46% 30.25 in 10.0 mi NW 10.4 mph - N/A   Clear
7:51 PM 46.9 °F - 28.0 °F 48% 30.27 in 10.0 mi NNW 8.1 mph - N/A   Clear
8:51 PM 44.6 °F 42.2 °F 26.6 °F 49% 30.28 in 10.0 mi NNE 4.6 mph - N/A   Clear
9:51 PM 45.0 °F 41.8 °F 26.1 °F 48% 30.30 in 10.0 mi NE 5.8 mph - N/A   Clear
10:51 PM 44.1 °F 41.5 °F 25.0 °F 47% 30.31 in 10.0 mi NNE 4.6 mph - N/A   Clear
11:51 PM 44.1 °F 42.5 °F 25.0 °F 47% 30.32 in 10.0 mi NNE 3.5 mph - N/A   Clear